Карточка аэропорта USTR

Внимание!
Информация на этой странице в стадии наполнения.
Если вы не увидели какой-то информации, или заметили неточность - пожалуйста сообщите нам!
Спасибо!
Команда RU-STAFF
Название аэропортаРощино
Название аэропорта (англ.)Roshschino
Превышение378 ft. (115.2 m.)
Координаты57°10.098', 65°19.002'
Высота перехода700m
Эшелон переходаFL040
Коды ответчика5101-5137
Зона ОрВДТюмень РПИ (USTV)
Данные METARUSTR 050830Z 09002MPS 2700 -SHSN HZ FEW011 BKN023CB M14/M17 Q1041 R30/350043 R21/350043 TEMPO 1200 -SHSN HZ BKN004 BKN016CB
Проноз погоды (TAF)USTR 050748Z 0509/0609 08003MPS 3100 -SHSN BR FEW006 BKN016CB TEMPO 0509/0603 0300 FZFG VV002 BECMG 0514/0515 20003MPS BECMG 0604/0605 9999 NSW SCT016
NOTAMshow/hide NOTAM
AWOS   TABLE

Информация о ВПП

ВПП Длина ВПП (м.) Покрытие Курс ВПП Частота ILS
033003Асфальтобетон34108.3
122704Асфальтобетон121 
213003Асфальтобетон214110.7
302704Асфальтобетон301 

Диспетчерские позиции

Позывной Наименование органа УВД Частота
USTR_R_APPТюмень-Круг126.100
USTR_GNDТюмень-Руление119.000
USTR_TWRТюмень-Старт118.200



Спутниковое изображение